Weather History for Melbourne, FL

Change the Weather History Date:

Thursday, April 25, 2013

  Actual Average Record
Temperature  
Mean Temperature 72 °F 72 °F  
Max Temperature 82 °F 82 °F 97 °F (1967)
Min Temperature 62 °F 62 °F 40 °F (1968)
Degree Days  
Heating Degree Days 0 0  
Month to date heating degree days 0 15  
Since 1 July heating degree days 463 575  
Cooling Degree Days 7 7  
Month to date cooling degree days 225 138  
Year to date cooling degree days 483 335  
Growing Degree Days 22 (Base 50)    
Moisture  
Dew Point 62 °F    
Average Humidity 72    
Maximum Humidity 93    
Minimum Humidity 51    
Precipitation  
Precipitation 0.00 in 0.06 in 1.42 in (1991)
Month to date precipitation 5.30 1.80  
Year to date precipitation 8.54 9.88  
Sea Level Pressure  
Sea Level Pressure 30.17 in    
Wind  
Wind Speed 7 mph (ESE)    
Max Wind Speed 15 mph    
Max Gust Speed 18 mph    
Visibility 10 miles    
Events      
T = Trace of Precipitation, MM = Missing Value Source: NWS Daily Summary

Daily Weather History Graph

Daily Weather History Graph

Search for Another Location

Airport:

Trip Planner

Search our weather history database for the weather conditions in past years. The results will help you decide how hot, cold, wet, or windy it might be!

Date:

Astronomy

Apr. 25, 2013 Rise Set
Actual Time 6:47 AM EDT 7:53 PM EDT
Civil Twilight 6:23 AM EDT 8:18 PM EDT
Nautical Twilight 5:54 AM EDT 8:47 PM EDT
Astronomical Twilight 5:24 AM EDT 9:17 PM EDT
Moon 8:02 PM EDT (4/25) 6:29 AM EDT (4/25)
Length of Visible Light 13h 55m
Length of Day
13h 06m
Full, 100% of the Moon is Illuminated
Apr 25
Full
Apr 25
Full
May 2
Last Quarter
May 9
New
May 18
First Quarter

Hourly Weather History & Observations

Time (EDT) Temp. Heat Index Dew Point Humidity Pressure Visibility Wind Dir Wind Speed Gust Speed Precip Events Conditions
12:53 AM 73.9 °F - 61.0 °F 64% 30.14 in 10.0 mi ESE 8.1 mph - N/A   Clear
1:53 AM 73.9 °F - 59.0 °F 59% 30.11 in 10.0 mi ESE 10.4 mph - N/A   Clear
2:53 AM 73.9 °F - 63.0 °F 68% 30.10 in 10.0 mi SE 5.8 mph - N/A   Clear
3:53 AM 68.0 °F - 62.1 °F 81% 30.11 in 10.0 mi SSW 3.5 mph - N/A   Clear
4:53 AM 64.0 °F - 60.1 °F 87% 30.12 in 10.0 mi WNW 6.9 mph - N/A   Clear
5:53 AM 63.0 °F - 60.1 °F 90% 30.14 in 10.0 mi WNW 5.8 mph - N/A   Clear
6:53 AM 62.1 °F - 60.1 °F 93% 30.16 in 9.0 mi WNW 3.5 mph - N/A   Partly Cloudy
7:53 AM 66.0 °F - 62.1 °F 87% 30.17 in 10.0 mi Calm Calm - N/A   Clear
8:53 AM 73.9 °F - 64.0 °F 71% 30.18 in 10.0 mi Calm Calm - N/A   Clear
9:53 AM 77.0 °F - 61.0 °F 58% 30.19 in 10.0 mi East 5.8 mph - N/A   Partly Cloudy
10:53 AM 78.1 °F - 60.1 °F 54% 30.20 in 10.0 mi Variable 5.8 mph - N/A   Partly Cloudy
11:53 AM 79.0 °F - 61.0 °F 54% 30.21 in 10.0 mi Calm Calm - N/A   Scattered Clouds
12:53 PM 81.0 °F 81.7 °F 61.0 °F 50% 30.20 in 10.0 mi ENE 9.2 mph - N/A   Scattered Clouds
1:53 PM 81.0 °F 81.9 °F 62.1 °F 52% 30.20 in 10.0 mi ENE 9.2 mph - N/A   Scattered Clouds
2:53 PM 81.0 °F 81.7 °F 61.0 °F 50% 30.19 in 10.0 mi East 11.5 mph - N/A   Partly Cloudy
3:53 PM 81.0 °F 81.7 °F 61.0 °F 50% 30.17 in 10.0 mi East 11.5 mph - N/A   Clear
4:53 PM 80.1 °F 81.1 °F 61.0 °F 52% 30.15 in 10.0 mi East 11.5 mph - N/A   Clear
5:53 PM 79.0 °F - 60.1 °F 52% 30.16 in 10.0 mi East 10.4 mph - N/A   Clear
6:53 PM 78.1 °F - 61.0 °F 56% 30.16 in 10.0 mi East 10.4 mph - N/A   Clear
7:53 PM 75.9 °F - 62.1 °F 62% 30.16 in 10.0 mi ESE 11.5 mph - N/A   Clear
8:53 PM 75.0 °F - 63.0 °F 66% 30.18 in 10.0 mi East 9.2 mph - N/A   Clear
9:53 PM 75.0 °F - 64.0 °F 69% 30.20 in 10.0 mi ESE 10.4 mph - N/A   Clear
10:53 PM 75.0 °F - 64.9 °F 71% 30.21 in 10.0 mi ESE 8.1 mph - N/A   Clear
11:53 PM 75.0 °F - 63.0 °F 66% 30.21 in 10.0 mi ESE 9.2 mph - N/A   Clear